Hourly Weather Gogolewko

Today, 15 May, Saturday

Time Temperature Precipitation Wind Pressure Humidity
00:00 +9°C° 0 mm 1 mps 746 mmHg 87%
01:00 +9°C° 0 mm 1 mps 746 mmHg 90%
02:00 +9°C° 0 mm 1 mps 746 mmHg 92%
03:00 +9°C° 0 mm 1 mps 746 mmHg 93%
04:00 +8°C° 0 mm 2 mps 746 mmHg 95%
05:00 +9°C° 0.1 mm 2 mps 747 mmHg 93%
06:00 +9°C° 0.1 mm 3 mps 747 mmHg 90%
07:00 +10°C° 0 mm 3 mps 747 mmHg 88%
08:00 +10°C° 0.2 mm 3 mps 748 mmHg 88%
09:00 +10°C° 0.2 mm 3 mps 748 mmHg 87%
10:00 +10°C° 0.2 mm 3 mps 748 mmHg 87%
11:00 +12°C° 0 mm 3 mps 748 mmHg 76%
12:00 +14°C° 0 mm 3 mps 748 mmHg 66%
13:00 +16°C° 0 mm 3 mps 748 mmHg 55%
14:00 +17°C° 0 mm 3 mps 748 mmHg 52%
15:00 +18°C° 0 mm 3 mps 747 mmHg 50%
16:00 +18°C° 0 mm 2 mps 747 mmHg 48%
17:00 +17°C° 0 mm 2 mps 747 mmHg 56%
18:00 +14°C° 0 mm 3 mps 747 mmHg 65%
19:00 +13°C° 0 mm 3 mps 747 mmHg 73%
20:00 +13°C° 0.3 mm 2 mps 747 mmHg 79%
21:00 +13°C° 0.3 mm 2 mps 747 mmHg 85%
22:00 +12°C° 0.3 mm 2 mps 747 mmHg 91%
23:00 +12°C° 0.5 mm 2 mps 747 mmHg 91%

Tomorrow, 16 May, Sunday

Time Temperature Precipitation Wind Pressure Humidity
00:00 +11°C° 0.5 mm 3 mps 747 mmHg 92%
01:00 +11°C° 0.5 mm 3 mps 747 mmHg 92%
02:00 +11°C° 0.3 mm 3 mps 747 mmHg 93%
03:00 +12°C° 0.3 mm 2 mps 747 mmHg 93%
04:00 +10°C° 0.3 mm 2 mps 746 mmHg 94%
05:00 +12°C° 0.1 mm 2 mps 746 mmHg 90%
06:00 +12°C° 0.1 mm 3 mps 746 mmHg 86%
07:00 +13°C° 0.1 mm 3 mps 746 mmHg 82%
08:00 +14°C° 0.2 mm 3 mps 746 mmHg 77%
09:00 +15°C° 0.2 mm 4 mps 746 mmHg 72%
10:00 +17°C° 0.2 mm 4 mps 746 mmHg 66%
11:00 +17°C° 0.4 mm 4 mps 746 mmHg 63%
12:00 +17°C° 0.4 mm 3 mps 746 mmHg 60%
13:00 +17°C° 0.4 mm 3 mps 746 mmHg 57%
14:00 +17°C° 0.1 mm 3 mps 746 mmHg 58%
15:00 +17°C° 0.1 mm 2 mps 745 mmHg 58%
16:00 +17°C° 0.1 mm 2 mps 745 mmHg 58%
17:00 +16°C° 0.1 mm 2 mps 745 mmHg 64%
18:00 +15°C° 0.1 mm 1 mps 745 mmHg 70%
19:00 +14°C° 0.1 mm 1 mps 745 mmHg 76%
20:00 +13°C° 0 mm 1 mps 745 mmHg 79%
21:00 +12°C° 0 mm 1 mps 745 mmHg 81%
22:00 +12°C° 0 mm 1 mps 745 mmHg 83%
23:00 +11°C° 0 mm 1 mps 745 mmHg 85%

Day after tomorrow, 17 May, Monday

Time Temperature Precipitation Wind Pressure Humidity
00:00 +10°C° 0 mm 2 mps 745 mmHg 86%
01:00 +9°C° 0 mm 2 mps 745 mmHg 88%
02:00 +9°C° 0 mm 2 mps 745 mmHg 89%
03:00 +8°C° 0 mm 2 mps 745 mmHg 90%
04:00 +8°C° 0 mm 2 mps 745 mmHg 91%
05:00 +9°C° 0 mm 3 mps 745 mmHg 85%
06:00 +11°C° 0 mm 3 mps 745 mmHg 79%
07:00 +13°C° 0 mm 3 mps 745 mmHg 73%
08:00 +13°C° 0.2 mm 3 mps 745 mmHg 71%
09:00 +14°C° 0.2 mm 3 mps 745 mmHg 70%
10:00 +14°C° 0.2 mm 3 mps 745 mmHg 69%
11:00 +14°C° 0.6 mm 3 mps 745 mmHg 73%
12:00 +14°C° 0.6 mm 3 mps 745 mmHg 76%
13:00 +13°C° 0.6 mm 3 mps 745 mmHg 80%
14:00 +15°C° 0.6 mm 2 mps 745 mmHg 78%
15:00 +15°C° 0.6 mm 2 mps 745 mmHg 76%
16:00 +15°C° 0.6 mm 2 mps 745 mmHg 74%
17:00 +15°C° 0.4 mm 1 mps 745 mmHg 78%
18:00 +14°C° 0.4 mm 1 mps 745 mmHg 82%
19:00 +13°C° 0.4 mm 1 mps 745 mmHg 86%
20:00 +12°C° 0.1 mm 1 mps 745 mmHg 87%
21:00 +12°C° 0.1 mm 1 mps 745 mmHg 89%
22:00 +11°C° 0.1 mm 1 mps 745 mmHg 91%
23:00 +11°C° 0 mm 1 mps 745 mmHg 91%

18 May, Tuesday

Time Temperature Precipitation Wind Pressure Humidity
00:00 +10°C° 0 mm 1 mps 745 mmHg 92%
01:00 +10°C° 0 mm 1 mps 745 mmHg 92%
02:00 +10°C° 0.1 mm 1 mps 745 mmHg 93%
03:00 +8°C° 0.1 mm 2 mps 745 mmHg 94%
04:00 +8°C° 0.1 mm 2 mps 745 mmHg 95%
05:00 +9°C° 0.1 mm 2 mps 745 mmHg 93%
06:00 +10°C° 0.1 mm 2 mps 746 mmHg 91%
07:00 +12°C° 0.1 mm 2 mps 746 mmHg 89%
08:00 +12°C° 0.2 mm 2 mps 746 mmHg 89%
09:00 +11°C° 0.2 mm 3 mps 746 mmHg 90%
10:00 +11°C° 0.2 mm 3 mps 746 mmHg 90%
11:00 +11°C° 0.4 mm 3 mps 746 mmHg 89%
12:00 +11°C° 0.4 mm 3 mps 746 mmHg 88%
13:00 +12°C° 0.4 mm 3 mps 747 mmHg 87%
14:00 +11°C° 0.4 mm 3 mps 747 mmHg 88%
15:00 +11°C° 0.4 mm 4 mps 747 mmHg 88%
16:00 +11°C° 0.4 mm 4 mps 747 mmHg 88%
17:00 +11°C° 0.2 mm 4 mps 747 mmHg 90%
18:00 +10°C° 0.2 mm 4 mps 748 mmHg 91%
19:00 +10°C° 0.2 mm 4 mps 748 mmHg 93%
20:00 +8°C° 0 mm 4 mps 748 mmHg 94%
21:00 +7°C° 0 mm 4 mps 748 mmHg 94%
22:00 +7°C° 0 mm 4 mps 748 mmHg 95%
23:00 +7°C° 0 mm 4 mps 749 mmHg 95%

19 May, Wednesday

Time Temperature Precipitation Wind Pressure Humidity
00:00 +7°C° 0 mm 4 mps 749 mmHg 96%
01:00 +6°C° 0 mm 4 mps 749 mmHg 96%
02:00 +6°C° 0 mm 4 mps 749 mmHg 96%
03:00 +6°C° 0 mm 4 mps 749 mmHg 96%
04:00 +6°C° 0 mm 5 mps 749 mmHg 96%
05:00 +7°C° 0 mm 5 mps 750 mmHg 92%
06:00 +8°C° 0 mm 6 mps 750 mmHg 88%
07:00 +9°C° 0 mm 6 mps 750 mmHg 84%
08:00 +9°C° 0 mm 6 mps 751 mmHg 76%
09:00 +10°C° 0 mm 6 mps 751 mmHg 69%
10:00 +11°C° 0 mm 7 mps 751 mmHg 62%
11:00 +11°C° 0.1 mm 7 mps 751 mmHg 62%
12:00 +11°C° 0.1 mm 7 mps 751 mmHg 62%
13:00 +11°C° 0.1 mm 7 mps 751 mmHg 63%
14:00 +11°C° 0 mm 7 mps 751 mmHg 59%
15:00 +13°C° 0 mm 6 mps 751 mmHg 55%
16:00 +13°C° 0 mm 6 mps 751 mmHg 51%
17:00 +11°C° 0 mm 6 mps 751 mmHg 58%
18:00 +10°C° 0 mm 5 mps 751 mmHg 64%
19:00 +10°C° 0 mm 4 mps 751 mmHg 70%
20:00 +8°C° 0 mm 4 mps 751 mmHg 76%
21:00 +8°C° 0 mm 3 mps 751 mmHg 81%
22:00 +7°C° 0 mm 3 mps 751 mmHg 86%
23:00 +6°C° 0 mm 4 mps 751 mmHg 88%

20 May, Thursday

Time Temperature Precipitation Wind Pressure Humidity
00:00 +6°C° 0 mm 4 mps 751 mmHg 90%
01:00 +6°C° 0 mm 4 mps 751 mmHg 92%
02:00 +6°C° 0 mm 4 mps 751 mmHg 93%
03:00 +6°C° 0 mm 4 mps 751 mmHg 94%
04:00 +5°C° 0 mm 4 mps 752 mmHg 96%
05:00 +6°C° 0 mm 5 mps 752 mmHg 90%
06:00 +8°C° 0 mm 5 mps 752 mmHg 84%
07:00 +9°C° 0 mm 6 mps 752 mmHg 78%
08:00 +9°C° 0.1 mm 6 mps 752 mmHg 74%
09:00 +10°C° 0.1 mm 6 mps 752 mmHg 69%
10:00 +11°C° 0.1 mm 6 mps 752 mmHg 65%
11:00 +11°C° 0.1 mm 6 mps 752 mmHg 63%
12:00 +13°C° 0.1 mm 6 mps 752 mmHg 60%
13:00 +13°C° 0.1 mm 6 mps 752 mmHg 58%
14:00 +13°C° 0.2 mm 5 mps 751 mmHg 60%
15:00 +13°C° 0.2 mm 5 mps 751 mmHg 62%
16:00 +13°C° 0.2 mm 5 mps 751 mmHg 64%
17:00 +13°C° 0.2 mm 4 mps 751 mmHg 69%
18:00 +12°C° 0.2 mm 3 mps 750 mmHg 75%
19:00 +12°C° 0.2 mm 2 mps 750 mmHg 81%
20:00 +10°C° 0 mm 2 mps 750 mmHg 84%
21:00 +10°C° 0 mm 3 mps 749 mmHg 86%
22:00 +9°C° 0 mm 3 mps 749 mmHg 88%
23:00 +9°C° 0.1 mm 3 mps 749 mmHg 89%
Show more